Weather History for Skagway, AK

Change the Weather History Date:

Friday, May 24, 2013

  Actual Average Record
Temperature  
Mean Temperature 59 °F -  
Max Temperature 68 °F 57 °F 79 °F (1969)
Min Temperature 50 °F 42 °F 38 °F (1992)
Degree Days  
Heating Degree Days 6    
Growing Degree Days 9 (Base 50)    
Moisture  
Dew Point 36 °F    
Average Humidity 44    
Maximum Humidity 71    
Minimum Humidity 23    
Precipitation  
Precipitation 0.00 in - - ()
Sea Level Pressure  
Sea Level Pressure 29.98 in    
Wind  
Wind Speed 7 mph (NNE)    
Max Wind Speed 21 mph    
Max Gust Speed 26 mph    
Averages and records for this station are not official NWS values.
T = Trace of Precipitation, MM = Missing Value Source: NWS Daily Summary

Daily Weather History Graph

Daily Weather History Graph

Search for Another Location

Airport:

Trip Planner

Search our weather history database for the weather conditions in past years. The results will help you decide how hot, cold, wet, or windy it might be!

Date:

Astronomy

May. 24, 2013 Rise Set
Actual Time 4:07 AM AKDT 9:49 PM AKDT
Civil Twilight 2:58 AM AKDT 11:00 PM AKDT
Nautical Twilight 1:30 AM AKDT 12:25 AM AKDT
Astronomical Twilight Sun does not rise Sun does not rise
Moon 9:31 PM AKDT (5/24) 4:02 AM AKDT (5/24)
Length of Visible Light 20h 01m
Length of Day
17h 41m
Full, 100% of the Moon is Illuminated
May 24
Full
May 24
Full
May 31
Last Quarter
Jun 8
New
Jun 16
First Quarter

Hourly Weather History & Observations

Time (AKDT) Temp. Dew Point Humidity Pressure Visibility Wind Dir Wind Speed Gust Speed Precip Events Conditions
12:53 AM 50.0 °F 36.0 °F 59% 29.98 in - NNE 3.5 mph - N/A   Clear
1:53 AM 50.0 °F 37.0 °F 61% 29.97 in - Calm Calm - N/A   Clear
2:53 AM 55.9 °F 34.0 °F 44% 29.96 in - Calm Calm - N/A   Clear
3:53 AM 60.1 °F 30.9 °F 33% 29.95 in - North 8.1 mph 16.1 mph N/A   Clear
4:53 AM 60.1 °F 30.0 °F 32% 29.94 in - NNE 15.0 mph 20.7 mph N/A   Clear
5:53 AM 60.1 °F 30.0 °F 32% 29.95 in - NNE 13.8 mph 25.3 mph N/A   Clear
6:53 AM 61.0 °F 30.0 °F 31% 29.95 in - NNE 17.3 mph 25.3 mph N/A   Clear
7:53 AM 63.0 °F 30.0 °F 29% 29.96 in - North 11.5 mph 18.4 mph N/A   Clear
8:53 AM 64.9 °F 28.9 °F 26% 29.96 in - NNE 20.7 mph 26.5 mph N/A   Clear
9:53 AM 64.9 °F 28.9 °F 26% 29.96 in - NNE 16.1 mph 21.9 mph N/A   Scattered Clouds
10:53 AM 68.0 °F 28.9 °F 23% 29.95 in - NE 16.1 mph - N/A   Scattered Clouds
11:53 AM 68.0 °F 28.9 °F 23% 29.96 in - NE 16.1 mph - N/A   Overcast
12:53 PM 66.0 °F 30.0 °F 26% 29.96 in - NNE 12.7 mph - N/A   Overcast
1:53 PM 66.9 °F 32.0 °F 27% 29.96 in - NNE 9.2 mph - N/A   Overcast
2:53 PM 66.0 °F 35.1 °F 32% 29.98 in - North 3.5 mph - N/A   Overcast
3:53 PM 57.9 °F 42.1 °F 56% 30.01 in - Calm Calm - 0.00 in Rain Light Rain
4:53 PM 60.1 °F 46.0 °F 60% 30.02 in - NNE 5.8 mph - 0.00 in   Overcast
5:53 PM 61.0 °F 43.0 °F 52% 30.01 in - NE 6.9 mph - 0.00 in   Overcast
6:53 PM 60.1 °F 46.0 °F 60% 30.00 in - Calm Calm - N/A   Overcast
7:53 PM 57.9 °F 44.1 °F 60% 30.01 in - NNW 3.5 mph - N/A   Overcast
8:53 PM 55.0 °F 43.0 °F 64% 30.01 in - Calm Calm - N/A   Overcast
9:53 PM 55.0 °F 43.0 °F 64% 30.01 in - Calm Calm - N/A   Overcast
10:53 PM 52.0 °F 43.0 °F 71% 30.02 in - Calm Calm - N/A   Overcast
11:53 PM 51.1 °F 42.1 °F 71% 30.01 in - Calm Calm - N/A   Overcast